Location: Township of Marena
(38.1747°N, 99.6798°W)
Time: 03:18:57
(UTC+00:00)

Cosmos 1340 - Pass Details

Date: 26 October 2020
Orbit: 501 x 504 km, 81.2° (Epoch: 27 November)

Event Time Altitude Azimuth Distance (km) Brightness Sun altitude
Rises 00:57:26 0° 356° (N) 2,611 6.3 -14.5°
Reaches altitude 10° 00:59:36 10° 1° (N) 1,723 5.3 -14.9°
Maximum altitude 01:03:18 53° 79° (E) 627 2.7 -15.6°
Drops below altitude 10° 01:06:59 10° 157° (SSE) 1,710 5.1 -16.4°
Sets 01:09:08 0° 162° (SSE) 2,590 6.1 -16.8°
